| time (UTC) | temp C | wind direction | speed KPH | gust KPH | rain 1hr cm | rain 24hr cm | rain mn cm | humidity % | barometer mb |
| 20260506193531 | 15 | 266 | 6.4 | 22.5 | 0.00 | 0.00 | 0.00 | 33 | 1018.2 |
| 20260506193048 | 14 | 339 | 8.0 | 22.5 | 0.00 | 0.00 | 0.00 | 31 | 1018.3 |
| 20260506192546 | 14 | 334 | 8.0 | 22.5 | 0.00 | 0.00 | 0.00 | 34 | 1018.3 |
| 20260506192044 | 13 | 335 | 6.4 | 12.9 | 0.00 | 0.00 | 0.00 | 32 | 1018.3 |
| 20260506191603 | 14 | 351 | 6.4 | 17.7 | 0.00 | 0.00 | 0.00 | 34 | 1018.3 |
| 20260506190556 | 14 | 343 | 9.7 | 17.7 | 0.00 | 0.00 | 0.00 | 33 | 1018.4 |
| 20260506190055 | 13 | 314 | 6.4 | 17.7 | 0.00 | 0.00 | 0.00 | 35 | 1018.3 |
| 20260506185553 | 13 | 287 | 8.0 | 14.5 | 0.00 | 0.00 | 0.00 | 34 | 1018.5 |
| 20260506185111 | 13 | 258 | 8.0 | 14.5 | 0.00 | 0.00 | 0.00 | 34 | 1018.5 |
| 20260506184609 | 13 | 342 | 6.4 | 14.5 | 0.00 | 0.00 | 0.00 | 35 | 1018.6 |
| 20260506184045 | 13 | 323 | 6.4 | 17.7 | 0.00 | 0.00 | 0.00 | 33 | 1018.7 |
| 20260506183543 | 13 | 259 | 8.0 | 16.1 | 0.00 | 0.00 | 0.00 | 34 | 1018.7 |
| 20260506183040 | 13 | 319 | 8.0 | 14.5 | 0.00 | 0.00 | 0.00 | 37 | 1018.7 |
| 20260506182538 | 13 | 311 | 6.4 | 17.7 | 0.00 | 0.00 | 0.00 | 38 | 1018.8 |
| 20260506182036 | 12 | 311 | 9.7 | 17.7 | 0.00 | 0.00 | 0.00 | 36 | 1018.9 |
| 20260506181554 | 12 | 317 | 6.4 | 12.9 | 0.00 | 0.00 | 0.00 | 37 | 1018.9 |
| 20260506181035 | 13 | 307 | 3.2 | 14.5 | 0.00 | 0.00 | 0.00 | 38 | 1018.9 |
| 20260506180604 | 13 | 279 | 6.4 | 14.5 | 0.00 | 0.00 | 0.00 | 37 | 1018.9 |
| 20260506180042 | 13 | 277 | 4.8 | 16.1 | 0.00 | 0.00 | 0.00 | 36 | 1018.9 |
| 20260506175538 | 13 | 356 | 1.6 | 16.1 | 0.00 | 0.00 | 0.00 | 38 | 1019.1 |
| 20260506175036 | 13 | 293 | 4.8 | 12.9 | 0.00 | 0.00 | 0.00 | 37 | 1019.1 |
| 20260506174533 | 12 | 305 | 6.4 | 12.9 | 0.00 | 0.00 | 0.00 | 36 | 1019.1 |
| 20260506174031 | 12 | 309 | 4.8 | 19.3 | 0.00 | 0.00 | 0.00 | 37 | 1019.3 |
| 20260506173550 | 12 | 278 | 8.0 | 19.3 | 0.00 | 0.00 | 0.00 | 36 | 1019.3 |
| 20260506173048 | 12 | 294 | 9.7 | 17.7 | 0.00 | 0.00 | 0.00 | 37 | 1019.5 |
| 20260506172544 | 12 | 306 | 8.0 | 12.9 | 0.00 | 0.00 | 0.00 | 37 | 1019.3 |
| 20260506172041 | 12 | 323 | 4.8 | 11.3 | 0.00 | 0.00 | 0.00 | 37 | 1019.5 |
| 20260506171538 | 12 | 325 | 4.8 | 12.9 | 0.00 | 0.00 | 0.00 | 37 | 1019.5 |
| 20260506171035 | 12 | 335 | 8.0 | 16.1 | 0.00 | 0.00 | 0.00 | 38 | 1019.6 |
| 20260506170604 | 12 | 266 | 8.0 | 22.5 | 0.00 | 0.00 | 0.00 | 36 | 1019.6 |
| 20260506170043 | 12 | 330 | 12.9 | 22.5 | 0.00 | 0.00 | 0.00 | 37 | 1019.6 |
| 20260506165541 | 11 | 276 | 4.8 | 20.9 | 0.00 | 0.00 | 0.00 | 39 | 1019.6 |
| 20260506165041 | 11 | 330 | 9.7 | 20.9 | 0.00 | 0.00 | 0.00 | 38 | 1019.7 |
| 20260506164539 | 11 | 338 | 4.8 | 14.5 | 0.00 | 0.00 | 0.00 | 38 | 1019.8 |
| 20260506164034 | 11 | 317 | 8.0 | 14.5 | 0.00 | 0.00 | 0.00 | 39 | 1019.8 |
| 20260506163532 | 11 | 269 | 6.4 | 16.1 | 0.00 | 0.00 | 0.00 | 38 | 1019.8 |
| 20260506163049 | 11 | 308 | 8.0 | 16.1 | 0.00 | 0.00 | 0.00 | 39 | 1019.8 |
| 20260506162546 | 11 | 311 | 4.8 | 12.9 | 0.00 | 0.00 | 0.00 | 41 | 1019.8 |
| 20260506162042 | 11 | 304 | 4.8 | 14.5 | 0.00 | 0.00 | 0.00 | 40 | 1019.7 |
| 20260506161540 | 11 | 267 | 8.0 | 16.1 | 0.00 | 0.00 | 0.00 | 40 | 1019.6 |
| 20260506161039 | 11 | 354 | 4.8 | 16.1 | 0.00 | 0.00 | 0.00 | 41 | 1019.7 |
| 20260506160607 | 11 | 345 | 8.0 | 16.1 | 0.00 | 0.00 | 0.00 | 41 | 1019.7 |
| 20260506160044 | 11 | 8 | 8.0 | 11.3 | 0.00 | 0.00 | 0.00 | 40 | 1019.7 |
| 20260506155539 | 10 | 309 | 3.2 | 16.1 | 0.00 | 0.00 | 0.00 | 41 | 1019.7 |
| 20260506154542 | 11 | 345 | 6.4 | 17.7 | 0.00 | 0.00 | 0.00 | 41 | 1019.6 |
| 20260506154037 | 11 | 263 | 6.4 | 17.7 | 0.00 | 0.00 | 0.00 | 42 | 1019.6 |
| 20260506153534 | 10 | 326 | 8.0 | 14.5 | 0.00 | 0.00 | 0.00 | 43 | 1019.6 |
| 20260506153034 | 10 | 335 | 8.0 | 19.3 | 0.00 | 0.00 | 0.00 | 40 | 1019.6 |
| 20260506152531 | 10 | 291 | 8.0 | 12.9 | 0.00 | 0.00 | 0.00 | 41 | 1019.6 |
| 20260506152047 | 11 | 340 | 6.4 | 12.9 | 0.00 | 0.00 | 0.00 | 43 | 1019.6 |
| 20260506151543 | 10 | 314 | 8.0 | 12.9 | 0.00 | 0.00 | 0.00 | 43 | 1019.5 |
| 20260506151101 | 10 | 298 | 6.4 | 12.9 | 0.00 | 0.00 | 0.00 | 45 | 1019.6 |
| 20260506150607 | 10 | 352 | 6.4 | 11.3 | 0.00 | 0.00 | 0.00 | 42 | 1019.6 |
| 20260506150045 | 10 | 262 | 6.4 | 11.3 | 0.00 | 0.00 | 0.00 | 42 | 1019.7 |
| 20260506145539 | 10 | 337 | 6.4 | 11.3 | 0.00 | 0.00 | 0.00 | 43 | 1019.7 |
| 20260506145036 | 10 | 288 | 4.8 | 8.0 | 0.00 | 0.00 | 0.00 | 43 | 1019.6 |
| 20260506144533 | 10 | 350 | 4.8 | 9.7 | 0.00 | 0.00 | 0.00 | 45 | 1019.6 |
| 20260506144049 | 10 | 348 | 4.8 | 12.9 | 0.00 | 0.00 | 0.00 | 46 | 1019.6 |
| 20260506143610 | 9 | 345 | 4.8 | 12.9 | 0.00 | 0.00 | 0.00 | 45 | 1019.6 |
| 20260506143044 | 9 | 321 | 3.2 | 9.7 | 0.00 | 0.00 | 0.00 | 47 | 1019.6 |
| 20260506142539 | 9 | 335 | 4.8 | 9.7 | 0.00 | 0.00 | 0.00 | 46 | 1019.5 |
| 20260506142034 | 9 | 301 | 4.8 | 8.0 | 0.00 | 0.00 | 0.00 | 47 | 1019.5 |
| 20260506141531 | 8 | 330 | 1.6 | 6.4 | 0.00 | 0.00 | 0.00 | 47 | 1019.5 |
| 20260506141047 | 8 | 337 | 3.2 | 8.0 | 0.00 | 0.00 | 0.00 | 46 | 1019.5 |
| 20260506140554 | 8 | 340 | 4.8 | 8.0 | 0.00 | 0.00 | 0.00 | 48 | 1019.5 |
| 20260506140030 | 8 | 320 | 3.2 | 8.0 | 0.00 | 0.00 | 0.00 | 52 | 1019.4 |
| 20260506135608 | 8 | 320 | 3.2 | 11.3 | 0.00 | 0.00 | 0.00 | 49 | 1019.3 |
| 20260506135107 | 8 | 313 | 3.2 | 6.4 | 0.00 | 0.00 | 0.00 | 51 | 1019.2 |
| 20260506134543 | 7 | 309 | 3.2 | 6.4 | 0.00 | 0.00 | 0.00 | 51 | 1019.3 |
| 20260506134042 | 7 | 326 | 3.2 | 8.0 | 0.00 | 0.00 | 0.00 | 54 | 1019.2 |
| 20260506133600 | 7 | 326 | 4.8 | 8.0 | 0.00 | 0.00 | 0.00 | 54 | 1019.2 |
| 20260506133039 | 7 | 326 | 4.8 | 8.0 | 0.00 | 0.00 | 0.00 | 56 | 1019.1 |
| 20260506132536 | 7 | 329 | 1.6 | 6.4 | 0.00 | 0.00 | 0.00 | 58 | 1019.0 |
| 20260506132033 | 6 | 329 | 3.2 | 8.0 | 0.00 | 0.00 | 0.00 | 57 | 1019.1 |
| 20260506131531 | 6 | 324 | 3.2 | 6.4 | 0.00 | 0.00 | 0.00 | 60 | 1019.0 |
| 20260506131049 | 6 | 323 | 1.6 | 4.8 | 0.00 | 0.00 | 0.00 | 62 | 1018.9 |
| 20260506130557 | 6 | 323 | 1.6 | 4.8 | 0.00 | 0.00 | 0.00 | 61 | 1018.9 |
| 20260506130035 | 5 | 328 | 1.6 | 4.8 | 0.00 | 0.00 | 0.00 | 63 | 1018.8 |
| 20260506125531 | 5 | 328 | 3.2 | 4.8 | 0.00 | 0.00 | 0.00 | 62 | 1018.9 |
| 20260506125029 | 5 | 328 | 1.6 | 3.2 | 0.00 | 0.00 | 0.00 | 63 | 1018.9 |
| 20260506124547 | 5 | 328 | 1.6 | 3.2 | 0.00 | 0.00 | 0.00 | 63 | 1018.7 |
| 20260506124046 | 4 | 328 | 1.6 | 3.2 | 0.00 | 0.00 | 0.00 | 65 | 1018.6 |
| 20260506123544 | 4 | 328 | 0.0 | 1.6 | 0.00 | 0.00 | 0.00 | 66 | 1018.5 |
| 20260506123043 | 3 | 328 | 0.0 | 1.6 | 0.00 | 0.00 | 0.00 | 69 | 1018.4 |
| 20260506122602 | 3 | 328 | 0.0 | 1.6 | 0.00 | 0.00 | 0.00 | 68 | 1018.3 |
| 20260506122040 | 3 | 328 | 0.0 | 0.0 | 0.00 | 0.00 | 0.00 | 67 | 1018.3 |
| 20260506121537 | 3 | 328 | 0.0 | 0.0 | 0.00 | 0.00 | 0.00 | 66 | 1018.2 |
| 20260506121038 | 3 | 328 | 0.0 | 0.0 | 0.00 | 0.00 | 0.00 | 67 | 1018.1 |
| 20260506120624 | 3 | 328 | 0.0 | 0.0 | 0.00 | 0.00 | 0.00 | 68 | 1018.1 |
| 20260506120047 | 3 | 328 | 0.0 | 0.0 | 0.00 | 0.00 | 0.00 | 67 | 1018.0 |
| 20260506115545 | 3 | 328 | 0.0 | 0.0 | 0.00 | 0.00 | 0.00 | 66 | 1017.9 |
| 20260506115105 | 3 | 328 | 0.0 | 0.0 | 0.00 | 0.00 | 0.00 | 66 | 1017.8 |
| 20260506114541 | 3 | 328 | 0.0 | 0.0 | 0.00 | 0.00 | 0.00 | 65 | 1017.8 |
| 20260506114100 | 3 | 328 | 0.0 | 0.0 | 0.00 | 0.00 | 0.00 | 64 | 1017.6 |
| 20260506113538 | 3 | 328 | 0.0 | 0.0 | 0.00 | 0.00 | 0.00 | 63 | 1017.8 |
| 20260506113035 | 3 | 328 | 0.0 | 1.6 | 0.00 | 0.00 | 0.00 | 63 | 1017.7 |
| 20260506112634 | 4 | 328 | 0.0 | 1.6 | 0.00 | 0.00 | 0.00 | 64 | 1017.6 |
| 20260506112046 | 4 | 328 | 0.0 | 1.6 | 0.00 | 0.00 | 0.00 | 63 | 1017.7 |
| 20260506111545 | 4 | 328 | 0.0 | 1.6 | 0.00 | 0.00 | 0.00 | 62 | 1017.6 |
| 20260506111042 | 4 | 328 | 0.0 | 1.6 | 0.00 | 0.00 | 0.00 | 61 | 1017.6 |
| 20260506110551 | 4 | 328 | 0.0 | 3.2 | 0.00 | 0.00 | 0.00 | 63 | 1017.4 |
| 20260506110031 | 4 | 328 | 1.6 | 4.8 | 0.00 | 0.00 | 0.00 | 63 | 1017.5 |
| 20260506105548 | 4 | 328 | 1.6 | 4.8 | 0.00 | 0.00 | 0.00 | 62 | 1017.5 |
| 20260506105044 | 4 | 328 | 0.0 | 3.2 | 0.00 | 0.00 | 0.00 | 63 | 1017.5 |
| 20260506104604 | 4 | 328 | 1.6 | 3.2 | 0.00 | 0.00 | 0.00 | 62 | 1017.5 |
| 20260506104040 | 4 | 328 | 0.0 | 1.6 | 0.00 | 0.00 | 0.00 | 61 | 1017.6 |
| 20260506103539 | 5 | 328 | 0.0 | 0.0 | 0.00 | 0.00 | 0.00 | 61 | 1017.5 |
| 20260506103037 | 5 | 328 | 0.0 | 1.6 | 0.00 | 0.00 | 0.00 | 61 | 1017.4 |
| 20260506102536 | 5 | 328 | 0.0 | 1.6 | 0.00 | 0.00 | 0.00 | 60 | 1017.4 |
| 20260506102054 | 5 | 328 | 0.0 | 1.6 | 0.00 | 0.00 | 0.00 | 59 | 1017.4 |
| 20260506101534 | 5 | 328 | 0.0 | 3.2 | 0.00 | 0.00 | 0.00 | 59 | 1017.2 |
| 20260506101031 | 5 | 328 | 1.6 | 3.2 | 0.00 | 0.00 | 0.00 | 60 | 1017.2 |
| 20260506100620 | 5 | 328 | 1.6 | 3.2 | 0.00 | 0.00 | 0.00 | 59 | 1017.2 |
| 20260506100038 | 5 | 328 | 1.6 | 4.8 | 0.00 | 0.00 | 0.00 | 58 | 1017.2 |
| 20260506095536 | 6 | 328 | 3.2 | 4.8 | 0.00 | 0.00 | 0.00 | 58 | 1017.1 |
| 20260506095052 | 6 | 328 | 1.6 | 4.8 | 0.00 | 0.00 | 0.00 | 56 | 1017.1 |
| 20260506094548 | 6 | 328 | 3.2 | 4.8 | 0.00 | 0.00 | 0.00 | 57 | 1017.1 |
| 20260506094046 | 6 | 328 | 3.2 | 8.0 | 0.00 | 0.00 | 0.00 | 57 | 1017.0 |
| 20260506093542 | 6 | 327 | 3.2 | 4.8 | 0.00 | 0.00 | 0.00 | 56 | 1017.0 |
| 20260506093039 | 6 | 327 | 3.2 | 4.8 | 0.00 | 0.00 | 0.00 | 57 | 1016.9 |
| 20260506092537 | 6 | 327 | 3.2 | 4.8 | 0.00 | 0.00 | 0.00 | 56 | 1016.8 |
| 20260506092054 | 6 | 327 | 3.2 | 4.8 | 0.00 | 0.00 | 0.00 | 56 | 1016.8 |
| 20260506091531 | 6 | 327 | 1.6 | 3.2 | 0.00 | 0.00 | 0.00 | 55 | 1016.7 |
| 20260506091030 | 6 | 327 | 1.6 | 3.2 | 0.00 | 0.00 | 0.00 | 54 | 1016.7 |
| 20260506090600 | 6 | 327 | 1.6 | 3.2 | 0.00 | 0.00 | 0.00 | 54 | 1016.7 |
| 20260506090039 | 6 | 327 | 1.6 | 3.2 | 0.00 | 0.00 | 0.00 | 55 | 1016.6 |
| 20260506085556 | 6 | 327 | 1.6 | 3.2 | 0.00 | 0.00 | 0.00 | 55 | 1016.6 |
| 20260506085032 | 6 | 327 | 1.6 | 3.2 | 0.00 | 0.00 | 0.00 | 53 | 1016.5 |
| 20260506084549 | 7 | 327 | 1.6 | 1.6 | 0.00 | 0.00 | 0.00 | 52 | 1016.6 |
| 20260506084046 | 7 | 327 | 1.6 | 3.2 | 0.00 | 0.00 | 0.00 | 52 | 1016.5 |
| 20260506083544 | 7 | 327 | 1.6 | 3.2 | 0.00 | 0.00 | 0.00 | 52 | 1016.6 |
| 20260506083045 | 7 | 327 | 1.6 | 4.8 | 0.00 | 0.00 | 0.00 | 53 | 1016.4 |
| 20260506082543 | 7 | 327 | 1.6 | 4.8 | 0.00 | 0.00 | 0.00 | 54 | 1016.4 |
| 20260506082103 | 7 | 327 | 1.6 | 3.2 | 0.00 | 0.00 | 0.00 | 53 | 1016.3 |
| 20260506081559 | 7 | 327 | 1.6 | 3.2 | 0.00 | 0.00 | 0.00 | 52 | 1016.3 |
| 20260506081056 | 7 | 327 | 1.6 | 4.8 | 0.00 | 0.00 | 0.00 | 53 | 1016.2 |
| 20260506080605 | 7 | 327 | 1.6 | 4.8 | 0.00 | 0.00 | 0.00 | 53 | 1016.3 |
| 20260506073049 | 7 | 327 | 1.6 | 4.8 | 0.00 | 0.03 | 0.00 | 50 | 1016.0 |
| 20260506072548 | 7 | 327 | 3.2 | 4.8 | 0.00 | 0.03 | 0.00 | 50 | 1016.0 |
| 20260506072045 | 7 | 326 | 3.2 | 4.8 | 0.00 | 0.03 | 0.00 | 51 | 1016.1 |
| 20260506071544 | 7 | 335 | 0.0 | 4.8 | 0.00 | 0.03 | 0.00 | 49 | 1016.0 |
| 20260506071103 | 7 | 335 | 1.6 | 4.8 | 0.00 | 0.03 | 0.00 | 50 | 1016.1 |
| 20260506070610 | 7 | 335 | 1.6 | 4.8 | 0.00 | 0.03 | 0.00 | 50 | 1016.1 |
| 20260506062035 | 8 | 340 | 3.2 | 6.4 | 0.00 | 0.05 | 0.00 | 47 | 1016.1 |
| 20260506061532 | 8 | 338 | 1.6 | 6.4 | 0.00 | 0.05 | 0.00 | 47 | 1016.0 |
| 20260506061050 | 8 | 342 | 3.2 | 8.0 | 0.00 | 0.05 | 0.00 | 46 | 1015.9 |
| 20260506060602 | 8 | 356 | 4.8 | 8.0 | 0.00 | 0.05 | 0.00 | 46 | 1015.9 |
| 20260506051037 | 10 | 338 | 6.4 | 16.1 | 0.00 | 0.05 | 0.00 | 41 | 1015.4 |
| 20260506050557 | 10 | 329 | 4.8 | 11.3 | 0.00 | 0.05 | 0.00 | 40 | 1015.4 |
| 20260506045038 | 10 | 352 | 6.4 | 12.9 | 0.00 | 0.05 | 0.05 | 40 | 1015.2 |
| 20260506044535 | 10 | 321 | 4.8 | 12.9 | 0.00 | 0.05 | 0.05 | 41 | 1015.1 |
| 20260506044034 | 10 | 326 | 4.8 | 12.9 | 0.00 | 0.05 | 0.05 | 40 | 1015.2 |
| 20260506043532 | 10 | 359 | 8.0 | 12.9 | 0.00 | 0.05 | 0.05 | 41 | 1015.1 |
| 20260506043112 | 10 | 330 | 3.2 | 12.9 | 0.00 | 0.05 | 0.05 | 41 | 1015.1 |
| 20260506042535 | 10 | 358 | 4.8 | 12.9 | 0.00 | 0.05 | 0.05 | 40 | 1015.1 |
| 20260506042035 | 10 | 316 | 4.8 | 11.3 | 0.00 | 0.05 | 0.05 | 40 | 1015.1 |
| 20260506041534 | 10 | 334 | 4.8 | 9.7 | 0.00 | 0.05 | 0.05 | 41 | 1015.0 |
| 20260506041052 | 10 | 315 | 3.2 | 14.5 | 0.00 | 0.05 | 0.05 | 41 | 1015.0 |
| 20260506040559 | 10 | 359 | 4.8 | 14.5 | 0.00 | 0.05 | 0.05 | 43 | 1014.9 |
| 20260506040040 | 10 | 330 | 3.2 | 11.3 | 0.00 | 0.05 | 0.05 | 42 | 1014.9 |
| 20260506035537 | 10 | 338 | 4.8 | 11.3 | 0.00 | 0.05 | 0.05 | 43 | 1014.9 |
| 20260506035034 | 10 | 350 | 6.4 | 11.3 | 0.00 | 0.05 | 0.05 | 41 | 1014.9 |
| 20260506034552 | 10 | 328 | 3.2 | 11.3 | 0.00 | 0.05 | 0.05 | 42 | 1014.9 |
| 20260506034048 | 10 | 328 | 4.8 | 11.3 | 0.00 | 0.05 | 0.05 | 41 | 1014.9 |
| 20260506033605 | 10 | 322 | 4.8 | 9.7 | 0.00 | 0.05 | 0.05 | 41 | 1014.9 |
| 20260506033043 | 10 | 316 | 4.8 | 8.0 | 0.00 | 0.05 | 0.05 | 42 | 1014.8 |
| 20260506032540 | 10 | 310 | 4.8 | 8.0 | 0.00 | 0.05 | 0.05 | 40 | 1014.8 |
| 20260506032038 | 10 | 13 | 4.8 | 9.7 | 0.00 | 0.05 | 0.05 | 40 | 1014.6 |
| 20260506031537 | 10 | 350 | 4.8 | 9.7 | 0.00 | 0.05 | 0.05 | 40 | 1014.6 |
| 20260506031035 | 10 | 3 | 3.2 | 9.7 | 0.00 | 0.05 | 0.05 | 42 | 1014.6 |
| 20260506030604 | 10 | 3 | 3.2 | 9.7 | 0.00 | 0.05 | 0.05 | 40 | 1014.5 |
| 20260506030046 | 10 | 301 | 4.8 | 9.7 | 0.00 | 0.05 | 0.05 | 39 | 1014.4 |
| 20260506025544 | 11 | 307 | 3.2 | 17.7 | 0.00 | 0.05 | 0.05 | 39 | 1014.4 |
| 20260506025042 | 11 | 336 | 4.8 | 17.7 | 0.00 | 0.05 | 0.05 | 39 | 1014.3 |
| 20260506024539 | 11 | 350 | 8.0 | 16.1 | 0.00 | 0.05 | 0.05 | 38 | 1014.2 |
| 20260506024037 | 11 | 349 | 8.0 | 16.1 | 0.00 | 0.05 | 0.05 | 38 | 1014.2 |
| 20260506023534 | 11 | 342 | 6.4 | 9.7 | 0.00 | 0.05 | 0.05 | 39 | 1014.0 |
| 20260506023112 | 11 | 2 | 4.8 | 12.9 | 0.00 | 0.05 | 0.05 | 38 | 1014.0 |
| 20260506022548 | 11 | 330 | 8.0 | 12.9 | 0.00 | 0.05 | 0.05 | 38 | 1014.0 |
| 20260506022046 | 11 | 333 | 6.4 | 11.3 | 0.00 | 0.05 | 0.05 | 38 | 1013.8 |
| 20260506021543 | 11 | 10 | 4.8 | 19.3 | 0.00 | 0.05 | 0.05 | 37 | 1013.8 |
| 20260506021042 | 11 | 313 | 8.0 | 19.3 | 0.00 | 0.05 | 0.05 | 37 | 1013.8 |
| 20260506020610 | 11 | 301 | 9.7 | 17.7 | 0.00 | 0.05 | 0.05 | 38 | 1013.8 |
| 20260506020048 | 11 | 342 | 4.8 | 17.7 | 0.00 | 0.05 | 0.05 | 38 | 1013.7 |
| 20260506015547 | 11 | 347 | 6.4 | 17.7 | 0.00 | 0.05 | 0.05 | 38 | 1013.7 |
| 20260506015045 | 11 | 349 | 8.0 | 17.7 | 0.00 | 0.05 | 0.05 | 37 | 1013.5 |
| 20260506014544 | 11 | 359 | 6.4 | 14.5 | 0.00 | 0.05 | 0.05 | 38 | 1013.5 |
| 20260506014045 | 11 | 345 | 6.4 | 17.7 | 0.00 | 0.05 | 0.05 | 38 | 1013.4 |
| 20260506013542 | 11 | 359 | 8.0 | 17.7 | 0.00 | 0.05 | 0.05 | 38 | 1013.4 |
| 20260506013100 | 11 | 304 | 6.4 | 19.3 | 0.00 | 0.05 | 0.05 | 37 | 1013.3 |
| 20260506012537 | 11 | 353 | 8.0 | 19.3 | 0.00 | 0.05 | 0.05 | 38 | 1013.2 |
| 20260506012035 | 11 | 360 | 8.0 | 27.4 | 0.00 | 0.05 | 0.05 | 37 | 1013.3 |
| 20260506011552 | 11 | 334 | 8.0 | 27.4 | 0.00 | 0.05 | 0.05 | 38 | 1013.1 |
| 20260506011050 | 11 | 359 | 8.0 | 22.5 | 0.00 | 0.05 | 0.05 | 38 | 1013.0 |
| 20260506010619 | 11 | 328 | 11.3 | 22.5 | 0.00 | 0.05 | 0.05 | 38 | 1013.1 |
| 20260506010036 | 12 | 312 | 6.4 | 14.5 | 0.00 | 0.05 | 0.05 | 39 | 1013.0 |
| 20260506005534 | 12 | 355 | 6.4 | 17.7 | 0.00 | 0.05 | 0.05 | 38 | 1013.0 |
| 20260506005051 | 12 | 330 | 8.0 | 17.7 | 0.00 | 0.05 | 0.05 | 38 | 1013.0 |
| 20260506004547 | 12 | 325 | 8.0 | 19.3 | 0.00 | 0.05 | 0.05 | 37 | 1012.9 |
| 20260506004043 | 12 | 332 | 8.0 | 19.3 | 0.00 | 0.05 | 0.05 | 36 | 1012.9 |
| 20260506003048 | 12 | 349 | 6.4 | 19.3 | 0.00 | 0.05 | 0.05 | 37 | 1012.7 |
| 20260506002608 | 12 | 355 | 9.7 | 17.7 | 0.00 | 0.05 | 0.05 | 37 | 1012.7 |
| 20260506002107 | 12 | 302 | 12.9 | 17.7 | 0.00 | 0.05 | 0.05 | 37 | 1012.7 |
| 20260506001604 | 12 | 305 | 3.2 | 19.3 | 0.00 | 0.05 | 0.05 | 37 | 1012.8 |
| 20260506001041 | 12 | 347 | 6.4 | 19.3 | 0.00 | 0.05 | 0.05 | 36 | 1012.8 |
| 20260506000628 | 12 | 333 | 9.7 | 24.1 | 0.00 | 0.05 | 0.05 | 36 | 1012.8 |
| 20260506000046 | 12 | 1 | 11.3 | 24.1 | 0.00 | 0.05 | 0.05 | 35 | 1012.7 |
| 20260505235545 | 12 | 356 | 6.4 | 24.1 | 0.00 | 0.05 | 0.05 | 36 | 1012.6 |
| 20260505235105 | 12 | 314 | 9.7 | 24.1 | 0.00 | 0.05 | 0.05 | 37 | 1012.6 |
| 20260505234540 | 12 | 325 | 6.4 | 20.9 | 0.00 | 0.05 | 0.05 | 37 | 1012.7 |
| 20260505234042 | 13 | 359 | 8.0 | 20.9 | 0.00 | 0.05 | 0.05 | 37 | 1012.6 |
| 20260505233540 | 13 | 328 | 8.0 | 22.5 | 0.00 | 0.05 | 0.05 | 38 | 1012.5 |
| 20260505233039 | 13 | 321 | 6.4 | 22.5 | 0.00 | 0.05 | 0.05 | 36 | 1012.4 |
| 20260505232557 | 13 | 302 | 8.0 | 17.7 | 0.00 | 0.05 | 0.05 | 36 | 1012.3 |
| 20260505232035 | 13 | 306 | 6.4 | 17.7 | 0.00 | 0.05 | 0.05 | 36 | 1012.4 |
| 20260505231533 | 13 | 324 | 8.0 | 17.7 | 0.00 | 0.05 | 0.05 | 36 | 1012.3 |
| 20260505231051 | 13 | 338 | 4.8 | 17.7 | 0.00 | 0.05 | 0.05 | 37 | 1012.3 |
| 20260505230559 | 13 | 335 | 6.4 | 16.1 | 0.00 | 0.05 | 0.05 | 34 | 1012.4 |
| 20260505230038 | 13 | 321 | 6.4 | 19.3 | 0.00 | 0.05 | 0.05 | 35 | 1012.4 |
| 20260505225535 | 13 | 340 | 9.7 | 19.3 | 0.00 | 0.05 | 0.05 | 36 | 1012.4 |
| 20260505225032 | 13 | 337 | 6.4 | 16.1 | 0.00 | 0.05 | 0.05 | 37 | 1012.3 |
| 20260505224549 | 13 | 345 | 4.8 | 16.1 | 0.00 | 0.05 | 0.05 | 38 | 1012.2 |
| 20260505224048 | 13 | 342 | 4.8 | 16.1 | 0.00 | 0.05 | 0.05 | 37 | 1012.3 |
| 20260505223609 | 13 | 321 | 8.0 | 16.1 | 0.00 | 0.05 | 0.05 | 36 | 1012.3 |
| 20260505223046 | 13 | 332 | 8.0 | 16.1 | 0.00 | 0.05 | 0.05 | 37 | 1012.4 |
| 20260505222545 | 13 | 307 | 9.7 | 16.1 | 0.00 | 0.05 | 0.05 | 36 | 1012.2 |
| 20260505222038 | 13 | 338 | 6.4 | 16.1 | 0.00 | 0.05 | 0.05 | 37 | 1012.3 |
| 20260505221539 | 13 | 336 | 3.2 | 16.1 | 0.00 | 0.05 | 0.05 | 39 | 1012.1 |
| 20260505221036 | 13 | 330 | 6.4 | 12.9 | 0.00 | 0.05 | 0.05 | 38 | 1012.2 |
| 20260505220604 | 13 | 320 | 4.8 | 11.3 | 0.00 | 0.05 | 0.05 | 38 | 1012.2 |
| 20260505220042 | 13 | 332 | 3.2 | 11.3 | 0.00 | 0.05 | 0.05 | 41 | 1012.2 |
| 20260505215536 | 13 | 322 | 4.8 | 11.3 | 0.00 | 0.05 | 0.05 | 39 | 1012.2 |
| 20260505215034 | 13 | 286 | 6.4 | 20.9 | 0.00 | 0.05 | 0.05 | 38 | 1012.3 |
| 20260505214551 | 13 | 302 | 6.4 | 17.7 | 0.00 | 0.05 | 0.05 | 36 | 1012.3 |
| 20260505214110 | 13 | 344 | 6.4 | 12.9 | 0.00 | 0.05 | 0.05 | 38 | 1012.3 |
| 20260505213548 | 13 | 359 | 6.4 | 16.1 | 0.00 | 0.05 | 0.05 | 38 | 1012.4 |
| 20260505213047 | 13 | 309 | 8.0 | 30.6 | 0.00 | 0.05 | 0.05 | 38 | 1012.5 |
| 20260505212545 | 13 | 335 | 12.9 | 30.6 | 0.00 | 0.05 | 0.05 | 37 | 1012.5 |
| 20260505212105 | 13 | 312 | 8.0 | 17.7 | 0.00 | 0.05 | 0.05 | 37 | 1012.6 |
| 20260505211542 | 13 | 297 | 6.4 | 19.3 | 0.00 | 0.05 | 0.05 | 37 | 1012.5 |
| 20260505211102 | 13 | 330 | 11.3 | 20.9 | 0.00 | 0.05 | 0.05 | 37 | 1012.5 |
| 20260505210552 | 13 | 314 | 8.0 | 20.9 | 0.00 | 0.05 | 0.05 | 38 | 1012.5 |
| 20260505210032 | 14 | 337 | 8.0 | 14.5 | 0.00 | 0.05 | 0.05 | 37 | 1012.6 |
| 20260505205611 | 14 | 337 | 6.4 | 14.5 | 0.00 | 0.05 | 0.05 | 37 | 1012.6 |
| 20260505205048 | 14 | 339 | 6.4 | 11.3 | 0.00 | 0.05 | 0.05 | 39 | 1012.6 |
| 20260505204545 | 14 | 292 | 4.8 | 12.9 | 0.00 | 0.05 | 0.05 | 36 | 1012.5 |
| 20260505204044 | 13 | 306 | 6.4 | 24.1 | 0.00 | 0.05 | 0.05 | 36 | 1012.7 |
| 20260505203601 | 14 | 310 | 9.7 | 24.1 | 0.00 | 0.05 | 0.05 | 37 | 1012.7 |
| 20260505203041 | 14 | 330 | 8.0 | 19.3 | 0.00 | 0.05 | 0.05 | 37 | 1012.6 |
| 20260505202538 | 14 | 327 | 9.7 | 24.1 | 0.00 | 0.05 | 0.05 | 39 | 1012.7 |
| 20260505202036 | 14 | 311 | 8.0 | 19.3 | 0.00 | 0.05 | 0.05 | 37 | 1012.7 |
| 20260505201535 | 14 | 359 | 8.0 | 22.5 | 0.00 | 0.05 | 0.05 | 39 | 1012.9 |
| 20260505201111 | 14 | 302 | 8.0 | 22.5 | 0.00 | 0.05 | 0.05 | 36 | 1012.9 |
| 20260505200600 | 14 | 335 | 9.7 | 19.3 | 0.00 | 0.05 | 0.05 | 36 | 1012.8 |
| 20260505195541 | 14 | 264 | 6.4 | 17.7 | 0.00 | 0.05 | 0.05 | 36 | 1012.9 |
| 20260505195038 | 14 | 314 | 8.0 | 20.9 | 0.00 | 0.05 | 0.05 | 38 | 1013.0 |
| 20260505194555 | 14 | 31 | 8.0 | 20.9 | 0.00 | 0.05 | 0.05 | 39 | 1013.0 |
| 20260505194050 | 13 | 316 | 9.7 | 14.5 | 0.00 | 0.05 | 0.05 | 39 | 1013.0 |